Погода Гродно

Погода Гродно : погода сейчас, прогноз погоды и архив. Всё, что Вы хотите узнать о погоде Гродно!

Поиск расширенной информации на нашем сайте:

Другие новости

Новости СМИ2

Главная страница сайта

Новости сайта

03.07.2017

Напоминаем, что на нашем специализированном сайте Метеоцентр.Азия вы можете получить высокодетализированные автоматические прогнозы погоды по пунктам России, СНГ и мира в авиационном формате (включающие направление и скорость ветра, видимость, явления погоды, количество и форму облачности, нижнюю и верхнюю границу облачности).


Погода Гродно - сегодня

Время (UTC), дата Ветер
(°,м/с) 
Видим.   Явления Облачность Т
(°С)
Тd
(°С)
f(%) Тe
(°С)
Pmin
(гПа)
dP
(гПа)
Po
(мм)
O2
(г/м3)
Тmin Tmax R s Состояние
почвы
12 20.08.17 350 (С) 9000 м  слаб. ливневой дождь  9/8 240 м кучево-дожд., средняя 
[Cb calv|Ac trans]
+16 +15.3 96 +25  1017.6  -1.1  750  282         
15 20.08.17 340 (С) 6000 м  слаб. ливневой дождь  9/8 210 м кучево-дожд., средняя 
[Cb calv|Ac trans]
+15.4 +14.9 97 +25  1016.8  -0.8  749  283      10     
18 20.08.17 320 (СЗ) 9000 м  слаб. ливневой дождь  9/8 240 м кучево-дожд., средняя 
[Cb calv|Ac trans]
+14.3 +13.5 95 +20  1016.7  -0.2  749  284    +16.5  20     
21 20.08.17 330 (СЗ) 5{11}  4200 м  слаб. ливневой дождь  9/8 300 м кучево-дожд., средняя 
[Cb calv|Ac trans]
+12.5 +12.1 97 +16  1016.8  749  286         
00 21.08.17 320 (СЗ) 8000 м  дымка{ливн. осадки}  9/4 600 м средняя 
[Sc|Ac trans]
+12.2 +11.4 95 +15  1016.8  749  287         
03 21.08.17 290 (З) 8000 м  слаб. ливневой дождь  9/8 800 м кучево-дожд., средняя 
[Cb calv|Ac trans]
+12.4 +11.9 97 +16  1016.5  -0.3  749  286         
06 21.08.17 290 (З) 9000 м  в посл. час ливневой дождь  10/8 800 м средняя 
[Sc|Ac trans]
+12.8 +12.4 97 +18  1016.6  0.1  749  286    +12.2  10     
09 21.08.17 270 (З) 12000 м    9/6 800 м средняя 
[Sc|Ac trans]
+15.4 +13.2 87 +22  1016.5  749  283           
12 21.08.17 230 (ЮЗ) 14000 м    8/6 900 м верхняя 
[Sc|Ci fib]
+18.9 +11.7 63 +24  1015.6  -0.6  749  280           
15 21.08.17 230 (ЮЗ) 12000 м    8/6 800 м кучево-дожд., средняя 
[Cb calv|Ac trans]
+18.6 +11.9 65 +23  1014.8  -0.8  748  280           
18 21.08.17 240 (ЮЗ) 10 км  в посл. час гроза{ливн. осадки}  10/8 800 м средняя 
[Sc|Ac trans]
+15.6 +12.5 82 +21  1015.6  0.6  749  283    +19.7  0.0     
21 21.08.17 230 (ЮЗ) 10 км    6/0 средняя 
[Ac trans]
+12.9 +12.2 96 +17  1015.7  -0.1  748  286           
00 22.08.17 250 (З) 8000 м  дымка  8/0 средняя 
[Ac trans]
+12.5 +12 97 +17  1014.9  -0.7  748  286           
03 22.08.17 270 (З) 8000 м  дымка  6/0 средняя 
[Ac trans]
+11.4 +10.9 97 +14  1014.9  -0.2  748  287           
06 22.08.17 250 (З) 9000 м  дымка  8/6 330 м средняя 
[St|Ac trans]
+14.4 +12.2 87 +19  1014.8  0.2  748  284  +11.1         
09 22.08.17 280 (З) 10 км    8/6 480 м средняя 
[St|Ac trans]
+15 +10.9 76 +18  1014.6  -0.2  748  284           
12 22.08.17 280 (З) 11000 м    8/8 900 м 
[Cu hum]
+17.9 +8.6 54 +18  1013.4  -1  747  281           
15 22.08.17 300 (СЗ) 12000 м    8/6 1000 м средняя 
[Cu hum|Ac trans]
+17.5 +11.2 67 +21  1012.9  -0.6  747  281           
18 22.08.17 310 (СЗ) 11000 м    8/0 средняя 
[Ac trans]
+15.2 +11.9 81 +20  1012.8  -0.2  746  283    +18.6       
21 22.08.17 290 (З) 8000 м  дымка  4/0 средняя 
[Ac trans]
+11.9 +10.2 89 +14  1012.5  -0.4  746  286           
00 23.08.17 290 (З) 7000 м  дымка  ясно 
+10.4 +9.4 94 +11  1012.1  -0.6  746  288           
03 23.08.17 290 (З) 7000 м  дымка  3/0 средняя 
[Ac trans]
+10 +9.4 96 +10  1011.3  -0.8  745  288           
06 23.08.17 300 (СЗ) 2700 м  дымка  10/10 60 м 
[St]
+11.8 +11.2 96 +14  1011.1  745  286  +9.9         
09 23.08.17 320 (СЗ) 10 км    9/8 450 м средняя 
[St|Ac trans]
+15.6 +11.8 78 +19  1011.2  0.3  745  282           
12 23.08.17 320 (СЗ) 7-10{11}  12000 м    8/6 900 м средняя 
[Cu hum|Ac trans]
+18.2 +11 63 +21  1010.6  -0.5  745  279           
Время (UTC), дата Ветер
(°,м/с) 
Видим.   Явления Облачность Т
(°С)
Тd
(°С)
f(%) Тe
(°С)
Pmin
(гПа)
dP
(гПа)
Po
(мм)
O2
(г/м3)
Тmin Tmax R s Состояние
почвы

Для получения пояснительной информации подведите курсор к названию столбца.

ПОГОДА Гродно - архив

Всё, что Вы хотите узнать о погоде Гродно - удобно и подробно!

Выберите нужную дату (начиная с 1 января 2015* года) и нажмите кнопку "Найти".
Будут отображены архивные сводки погоды по пункту Гродно, начиная с указанной даты.


Отображать данные в формате CSV (для использования в таблицах Excel)


Внимание! Наш архив погоды предназначен исключительно для личного некоммерческого использования в познавательных целях. Если Вам необходимы официальные справки о состоянии погоды (для производственных, юридических, коммерческих и т.п. целей), обращайтесь в органы Росгидромета.

*Примечание: данная дата относится к архиву по метеостанциям СССР (Россия, СНГ, Балтия).
Архив по метеостанциям Зарубежной Европы и Азии (кроме Китая) хранится 10 дней, по другим регионам земного шара (Китай, Африка, Америка, Австралия, Океания) - 1 день.

Гродно - район местоположения метеостанции


Название, широта, долгота, высота метеостанции:
Гродно 53.6°ш. 24.1°д. 134 м над ур. моря [Беларусь]

Дополнительная информация

В oтличие oт бoльшинства пoгoдных сайтoв мы публикуем пoдрoбную метеoинфoрмацию в детальнoм прoфессиoнальнoм фoрмате.

Характеристики температуры и влажнoсти вoздуха измеряются на высoте 2 м в тени вдали oт зданий и деревьев.
Скoрoсть ветра измеряется на высoте 10 м (на урoвне рoста челoвека скoрoсть ветра ниже в 1.5-2 раза). Если метеoстанция нахoдится в гoрoде или в лесу, тo скoрoсть ветра занижена на 2-4 м/с пo сравнению с oткрытым местoм. Скoрoсть ветра над акватoриями крупных рек и oзёр, а также на вершинах хoлмoв на 2-5 м/с выше, чем в oбычных услoвиях.
Атмoсфернoе давление в разных тoчках местнoсти мoжет значительнo oтличаться oт давления на метеoстанции, в зависимoсти oт услoвий рельефа (при пoдъёме на 10 м давление пoнижается примернo на 1 мм рт.ст.).